Location: Colebrook
(42.0017°N, 73.0973°W)
Time: 07:37:39
(UTC-05:00)

Amateur Radio Satellites - All Passes

Search period start: 26 November 2014 07:07
Search period end: 27 November 2014 07:07
Location: Colebrook, 42.0017°N, 73.0973°W

Satellite Date Start Highest point End Downlink Frequencies (MHz)
Time Altitude Azimuth
O/OREOS (USA 219) 26 Nov 07:12:10 07:14:56 16° 307° (NW) 07:17:43 437.305
STRAND 1 26 Nov 07:12:14 07:15:43 18° 268° (W) 07:19:12 437.568
CUTE-I 26 Nov 07:30:44 07:35:00 25° 296° (WNW) 07:39:15 437.470
SEEDS 26 Nov 07:44:14 07:45:17 11° 89° (E) 07:46:19 437.485
AAUSAT CUBESAT 2 26 Nov 08:00:06 08:01:51 12° 90° (E) 08:03:36 437.432
CANX-2 26 Nov 08:10:16 08:13:57 27° 95° (E) 08:17:38 2200.000
COMPASS 1 26 Nov 08:14:18 08:17:30 20° 93° (E) 08:20:41 437.405
HO-68 26 Nov 08:26:33 08:33:26 47° 100° (E) 08:40:14 435.675
TIGRISAT 26 Nov 08:31:05 08:33:19 14° 63° (ENE) 08:35:34 435.000
CINEMA 3 26 Nov 08:33:07 08:35:18 14° 92° (E) 08:37:30 145.822/145.860
GOMX 1 26 Nov 08:39:59 08:43:49 35° 98° (E) 08:47:44 467.674
BUGSAT 1 26 Nov 08:41:05 08:41:56 11° 61° (ENE) 08:42:47 437.445
UNISAT 6 26 Nov 08:43:54 08:46:58 20° 66° (ENE) 08:50:02 437.425
CUTE 1.7 & AOD 2 26 Nov 08:44:29 08:48:45 61° 101° (E) 08:53:00 437.475
GONETS M04 26 Nov 08:51:22 08:59:59 58° 283° (WNW) 09:08:43
POPSAT HIP 1 26 Nov 08:54:07 08:56:58 18° 65° (ENE) 08:59:49 437.405
BRITE-PL 26 Nov 09:09:31 09:13:40 75° 285° (WNW) 09:17:51 437.365/2234.400
UKube-1 26 Nov 09:11:17 09:15:12 32° 97° (E) 09:19:04 .
ANTELSAT 26 Nov 09:11:39 09:15:35 38° 71° (ENE) 09:19:32 437.575/2403.000
FUNcube-1 26 Nov 09:15:09 09:18:08 18° 93° (E) 09:21:09 145.935
SEEDS 26 Nov 09:17:18 09:21:33 66° 285° (WNW) 09:25:47 437.485
Oscar 11 26 Nov 09:22:09 09:26:24 51° 100° (E) 09:30:38 145.826/435.025
POLYITAN 1 26 Nov 09:26:31 09:30:29 38° 71° (ENE) 09:34:26 437.675
QB50P2 26 Nov 09:28:24 09:32:23 40° 71° (ENE) 09:36:23 145.880/145.840
AAUSAT CUBESAT 2 26 Nov 09:33:44 09:37:54 58° 286° (WNW) 09:42:03 437.432
DUCHIFAT 1 26 Nov 09:34:11 09:38:15 46° 72° (ENE) 09:42:20 145.980
DOVE 4 26 Nov 09:34:33 09:38:43 74° 284° (WNW) 09:43:00 437.250
DELFI C3 26 Nov 09:37:43 09:41:51 66° 101° (E) 09:45:57 145.870
UWE-3 26 Nov 09:41:03 09:45:05 42° 99° (E) 09:49:11 435.000/436.395/437.385
CUBEBUG 2 26 Nov 09:41:15 09:45:22 49° 100° (E) 09:49:35 437.445
50 SAT 26 Nov 09:44:51 09:47:46 19° 94° (E) 09:50:42 437.505
CANX-2 26 Nov 09:46:13 09:49:49 27° 291° (WNW) 09:53:25 2200.000
DX 1 26 Nov 09:46:47 09:51:09 82° 103° (ESE) 09:55:29 434.975-435.025
COMPASS 1 26 Nov 09:49:28 09:53:19 34° 289° (WNW) 09:57:10 437.405
NANOSAT C BR1 26 Nov 09:53:26 09:57:41 77° 76° (ENE) 10:01:57 145.865
HUMSAT D 26 Nov 09:57:05 10:00:50 32° 97° (E) 10:04:37 437.325/437.525
QB50P1 26 Nov 10:03:22 10:07:38 82° 258° (WSW) 10:11:55 145.935-145.965
TIGRISAT 26 Nov 10:05:28 10:09:38 54° 260° (W) 10:13:49 435.000
CINEMA 3 26 Nov 10:08:42 10:12:48 51° 287° (WNW) 10:17:00 145.822/145.860
BUGSAT 1 26 Nov 10:12:34 10:16:49 78° 257° (WSW) 10:21:05 437.445
HO-68 26 Nov 10:14:34 10:20:56 36° 298° (WNW) 10:27:16 435.675
ZACube-1 26 Nov 10:15:26 10:19:42 88° 103° (ESE) 10:24:01 437.345
VELOX 1 26 Nov 10:17:45 10:22:07 55° 101° (E) 10:26:25 145.980
ESTCUBE 1 26 Nov 10:17:55 10:21:26 22° 94° (E) 10:24:55 437.505/2401.250
GOMX 1 26 Nov 10:18:47 10:21:45 19° 293° (WNW) 10:24:46 467.674
UNISAT 6 26 Nov 10:19:33 10:23:31 37° 262° (W) 10:27:30 437.425
CUTE 1.7 & AOD 2 26 Nov 10:22:08 10:24:11 13° 297° (WNW) 10:26:14 437.475
POPSAT HIP 1 26 Nov 10:28:31 10:32:34 42° 261° (W) 10:36:37 437.405
AISAT 26 Nov 10:44:10 10:48:36 75° 285° (WNW) 10:53:00 437.250
UKube-1 26 Nov 10:47:45 10:51:12 24° 294° (WNW) 10:54:39 .
ANTELSAT 26 Nov 10:49:33 10:52:33 19° 267° (W) 10:55:33 437.575/2403.000
FUNcube-1 26 Nov 10:50:42 10:54:38 38° 289° (WNW) 10:58:37 145.935
CUBEBUG 1 26 Nov 10:56:01 11:00:18 52° 100° (E) 11:04:31 437.445
GONETS M04 26 Nov 10:56:37 10:59:07 11° 307° (NW) 11:01:37
Oscar 11 26 Nov 10:59:33 11:02:10 16° 296° (WNW) 11:04:46 145.826/435.025
POLYITAN 1 26 Nov 11:03:36 11:06:35 18° 267° (W) 11:09:33 437.675
QB50P2 26 Nov 11:05:37 11:08:29 18° 267° (W) 11:11:21 145.880/145.840
SO-50 26 Nov 11:09:20 11:13:35 29° 46° (NE) 11:17:51 436.795
DUCHIFAT 1 26 Nov 11:11:50 11:14:22 15° 268° (W) 11:16:55 145.980
DELFI C3 26 Nov 11:15:10 11:16:36 12° 298° (WNW) 11:18:02 145.870
YUBILEINY 26 Nov 11:16:41 11:20:42 14° 56° (NE) 11:24:41 435.215
Oscar 19 26 Nov 11:17:06 11:20:27 18° 62° (ENE) 11:23:48 437.125/150
UWE-3 26 Nov 11:18:29 11:21:21 18° 294° (WNW) 11:24:15 435.000/436.395/437.385
CUBEBUG 2 26 Nov 11:19:12 11:21:44 16° 295° (WNW) 11:24:17 437.445
50 SAT 26 Nov 11:19:29 11:23:10 34° 289° (WNW) 11:26:52 437.505
DX 1 26 Nov 11:26:00 11:26:44 10° 300° (WNW) 11:27:28 434.975-435.025
HUMSAT D 26 Nov 11:33:16 11:36:29 22° 293° (WNW) 11:39:43 437.325/437.525
ESTCUBE 1 26 Nov 11:54:14 11:58:25 37° 290° (WNW) 12:02:33 437.505/2401.250
VELOX 1 26 Nov 11:55:42 11:58:15 15° 297° (WNW) 12:00:48 145.980
CUSAT 1 26 Nov 11:59:23 12:00:59 15° 93° (E) 12:02:33 437.405
AUBIESAT-1 26 Nov 12:07:09 12:09:33 14° 94° (E) 12:11:54 437.475
TISAT 1 26 Nov 12:07:43 12:11:57 83° 103° (ESE) 12:16:09 437.305
ITAMSAT 1 26 Nov 12:10:13 12:14:11 23° 63° (ENE) 12:18:10 435.822/435.867
BEESAT 26 Nov 12:10:43 12:13:00 13° 90° (E) 12:15:16 436.000
M-CUBED/EXP-1 PRIME 26 Nov 12:12:00 12:15:10 17° 96° (E) 12:18:16 437.505
SPROUT 26 Nov 12:18:38 12:22:56 85° 284° (WNW) 12:27:12 437.525
DANDE 26 Nov 12:25:59 12:28:28 30° 96° (E) 12:30:49 436.750
CUBEBUG 1 26 Nov 12:33:40 12:36:15 16° 297° (WNW) 12:38:49 437.445
Gurwin Techsat 1B 26 Nov 12:44:09 12:48:29 26° 65° (ENE) 12:52:51 435.225
HORYU 2 26 Nov 12:49:33 12:50:18 10° 59° (ENE) 12:51:04 437.375
SO-50 26 Nov 12:49:41 12:54:16 41° 244° (WSW) 12:58:51 436.795
Oscar 19 26 Nov 12:54:15 12:59:17 61° 259° (W) 13:04:22 437.125/150
ITUPSAT 1 26 Nov 13:04:48 13:09:26 46° 99° (E) 13:14:02 437.325
YUBILEINY 26 Nov 13:10:43 13:19:25 68° 79° (E) 13:28:02 435.215
SWISSCUBE 26 Nov 13:15:30 13:20:17 66° 102° (ESE) 13:25:02 437.505
STARS 26 Nov 13:27:32 13:28:13 10° 89° (E) 13:28:54 437.465
AO-7 26 Nov 13:28:56 13:35:17 25° 53° (NE) 13:41:38 29.400- 29.500
AUBIESAT-1 26 Nov 13:40:05 13:45:00 74° 290° (WNW) 13:49:47 437.475
CUSAT 1 26 Nov 13:43:27 13:44:04 11° 289° (WNW) 13:44:42 437.405
M-CUBED/EXP-1 PRIME 26 Nov 13:45:40 13:50:33 60° 292° (WNW) 13:55:18 437.505
BEESAT 26 Nov 13:46:31 13:51:18 67° 286° (WNW) 13:56:02 436.000
ITAMSAT 1 26 Nov 13:48:18 13:53:20 49° 260° (W) 13:58:24 435.822/435.867
O/OREOS (USA 219) 26 Nov 14:02:25 14:04:50 14° 52° (NE) 14:07:15 437.305
PHONESAT 2.4 26 Nov 14:05:29 14:08:27 23° 153° (SSE) 14:11:27 2401.200-2431.200
KKS-1 26 Nov 14:06:06 14:10:20 42° 99° (E) 14:14:32 437.445
RS-15 26 Nov 14:07:44 14:15:34 23° 101° (E) 14:23:19 29.354- 29.394
VERMONT LUNAR 26 Nov 14:14:23 14:17:38 32° 158° (SSE) 14:20:55 437.305
HORYU 2 26 Nov 14:21:52 14:26:17 85° 256° (WSW) 14:30:45 437.375
Gurwin Techsat 1B 26 Nov 14:23:14 14:28:14 42° 262° (W) 14:33:16 435.225
MaSat-1 26 Nov 14:30:20 14:33:12 44° 113° (ESE) 14:35:50 437.345
ITUPSAT 1 26 Nov 14:43:29 14:47:00 21° 296° (WNW) 14:50:29 437.325
JAS-2 26 Nov 14:50:16 14:56:17 26° 59° (ENE) 15:02:22 435.910
SWISSCUBE 26 Nov 14:54:54 14:57:36 15° 299° (WNW) 15:00:17 437.505
STARS 26 Nov 15:00:48 15:05:12 72° 285° (WNW) 15:09:34 437.465
YUBILEINY 26 Nov 15:08:41 15:15:25 26° 279° (W) 15:22:07 435.215
AUBIESAT-1 26 Nov 15:17:53 15:19:06 11° 307° (NW) 15:20:20 437.475
AO-7 26 Nov 15:18:54 15:27:11 81° 253° (WSW) 15:35:34 29.400- 29.500
CUTE-I 26 Nov 15:37:15 15:38:32 11° 56° (NE) 15:39:50 437.470
O/OREOS (USA 219) 26 Nov 15:40:16 15:44:43 68° 250° (WSW) 15:49:10 437.305
PHONESAT 2.4 26 Nov 15:43:13 15:46:53 59° 169° (S) 15:50:34 2401.200-2431.200
KKS-1 26 Nov 15:43:32 15:46:40 19° 295° (WNW) 15:49:48 437.445
VERMONT LUNAR 26 Nov 15:52:16 15:55:53 68° 175° (S) 15:59:30 437.305
RS-15 26 Nov 16:15:24 16:26:23 88° 302° (WNW) 16:37:25 29.354- 29.394
Cubesat XI-IV 26 Nov 16:31:49 16:36:35 34° 67° (ENE) 16:41:21 437.490
JAS-2 26 Nov 16:32:51 16:40:29 77° 257° (WSW) 16:48:25 435.910
MOZHAYETS 4 26 Nov 16:50:44 16:55:25 70° 101° (ESE) 17:00:03
GONETS M04 26 Nov 17:06:20 17:11:17 16° 58° (ENE) 17:16:11
CUTE-I 26 Nov 17:12:20 17:17:41 75° 74° (ENE) 17:23:02 437.470
AO-7 26 Nov 17:16:42 17:21:11 15° 272° (W) 17:25:41 29.400- 29.500
PHONESAT 2.4 26 Nov 17:21:53 17:25:35 66° 187° (S) 17:29:17 2401.200-2431.200
VERMONT LUNAR 26 Nov 17:30:41 17:34:15 56° 192° (SSW) 17:37:49 437.305
STRAND 1 26 Nov 17:42:30 17:45:55 18° 92° (E) 17:49:18 437.568
PRISM 26 Nov 17:50:04 17:54:14 53° 101° (E) 17:58:21 437.425
Cubesat XI-IV 26 Nov 18:11:51 18:16:37 32° 264° (W) 18:21:25 437.490
JAS-2 26 Nov 18:22:40 18:26:39 15° 276° (W) 18:30:42 435.910
MOZHAYETS 4 26 Nov 18:29:48 18:32:03 14° 298° (WNW) 18:34:17
RS-15 26 Nov 18:30:57 18:40:24 32° 329° (NNW) 18:50:00 29.354- 29.394
CUBESAT XI-V 26 Nov 18:33:56 18:38:35 62° 101° (E) 18:43:09 437.345
BRITE-PL 26 Nov 18:44:38 18:47:18 15° 64° (ENE) 18:49:52 437.365/2234.400
BEESAT 3 26 Nov 18:47:15 18:50:01 18° 111° (ESE) 18:52:50 437.485
PCSat 26 Nov 18:52:50 18:57:59 47° 113° (ESE) 19:03:11 145.827
AIST 1 26 Nov 18:55:35 18:59:42 40° 92° (E) 19:03:51
CUTE-I 26 Nov 18:55:36 18:58:18 14° 270° (W) 19:01:01 437.470
HO-68 26 Nov 18:55:39 19:02:05 37° 63° (ENE) 19:08:33 435.675
PHONESAT 2.4 26 Nov 19:00:49 19:04:07 30° 203° (SSW) 19:07:24 2401.200-2431.200
GONETS M04 26 Nov 19:00:57 19:09:50 75° 81° (E) 19:18:35
BEESAT 2 26 Nov 19:02:39 19:05:56 23° 113° (ESE) 19:09:17 435.950
CANX-2 26 Nov 19:04:28 19:07:41 22° 67° (ENE) 19:10:55 2200.000
DOVE 4 26 Nov 19:06:18 19:08:01 12° 63° (ENE) 19:09:42 437.250
COMPASS 1 26 Nov 19:07:29 19:10:01 16° 65° (ENE) 19:12:34 437.405
VERMONT LUNAR 26 Nov 19:09:34 19:12:20 21° 208° (SSW) 19:15:06 437.305
STRAND 1 26 Nov 19:20:27 19:25:27 55° 288° (WNW) 19:30:24 437.568
PRISM 26 Nov 19:27:00 19:29:20 15° 297° (WNW) 19:31:40 437.425
CINEMA 3 26 Nov 19:36:14 19:38:36 15° 64° (ENE) 19:40:56 145.822/145.860
CUTE 1.7 & AOD 2 26 Nov 19:38:05 19:42:05 45° 72° (ENE) 19:46:08 437.475
AIST 2 26 Nov 19:39:50 19:43:29 29° 114° (ESE) 19:47:11 435.215
GOMX 1 26 Nov 19:48:30 19:52:59 44° 72° (ENE) 19:57:13 467.674
UKube-1 26 Nov 20:07:02 20:10:50 30° 68° (ENE) 20:14:39 .
AISAT 26 Nov 20:09:42 20:11:09 11° 60° (ENE) 20:12:35 437.250
SEEDS 26 Nov 20:09:58 20:14:10 90° 242° (WSW) 20:18:24 437.485
FUNcube-1 26 Nov 20:12:38 20:15:13 16° 65° (ENE) 20:17:47 145.935
CUBESAT XI-V 26 Nov 20:12:52 20:15:30 15° 298° (WNW) 20:18:07 437.345
Oscar 11 26 Nov 20:17:28 20:21:31 41° 71° (ENE) 20:25:35 145.826/435.025
BRITE-PL 26 Nov 20:20:26 20:25:25 64° 259° (WSW) 20:30:01 437.365/2234.400
BEESAT 3 26 Nov 20:23:57 20:27:54 45° 308° (NW) 20:31:56 437.485
AAUSAT CUBESAT 2 26 Nov 20:25:19 20:29:28 81° 258° (WSW) 20:33:40 437.432
DELFI C3 26 Nov 20:27:01 20:30:52 43° 72° (ENE) 20:34:46 145.870
AIST 1 26 Nov 20:34:32 20:37:33 18° 289° (WNW) 20:40:36
50 SAT 26 Nov 20:35:26 20:37:33 14° 64° (ENE) 20:39:41 437.505
PCSat 26 Nov 20:36:59 20:41:36 28° 312° (NW) 20:46:16 145.827
UWE-3 26 Nov 20:39:13 20:43:04 36° 71° (ENE) 20:46:54 435.000/436.395/437.385
CANX-2 26 Nov 20:39:38 20:43:26 33° 263° (W) 20:47:17 2200.000
BEESAT 2 26 Nov 20:40:15 20:44:03 35° 310° (NW) 20:47:56 435.950
CUBEBUG 2 26 Nov 20:40:26 20:44:27 43° 72° (ENE) 20:48:25 437.445
DOVE 4 26 Nov 20:40:43 20:45:19 70° 258° (WSW) 20:49:40 437.250
COMPASS 1 26 Nov 20:41:23 20:45:23 46° 261° (W) 20:49:26 437.405
DX 1 26 Nov 20:42:42 20:47:05 76° 75° (ENE) 20:51:28 434.975-435.025
HO-68 26 Nov 20:42:51 20:49:39 45° 261° (W) 20:56:30 435.675
RS-15 26 Nov 20:49:36 20:57:35 22° 5° (N) 21:05:43 29.354- 29.394
HUMSAT D 26 Nov 20:50:25 20:53:47 25° 68° (ENE) 20:57:08 437.325/437.525
GONETS M04 26 Nov 20:59:13 21:05:40 24° 281° (W) 21:12:06
CINEMA 3 26 Nov 21:11:09 21:15:26 53° 260° (W) 21:19:36 145.822/145.860
ZACube-1 26 Nov 21:12:09 21:16:21 73° 75° (ENE) 21:20:30 437.345
CUTE 1.7 & AOD 2 26 Nov 21:15:45 21:18:16 15° 269° (W) 21:20:48 437.475
VELOX 1 26 Nov 21:16:01 21:20:22 53° 72° (ENE) 21:24:43 145.980
AIST 2 26 Nov 21:18:16 21:22:03 31° 312° (NW) 21:25:54 435.215
ESTCUBE 1 26 Nov 21:18:26 21:21:57 23° 66° (ENE) 21:25:29 437.505/2401.250
GOMX 1 26 Nov 21:27:59 21:31:16 19° 266° (W) 21:34:26 467.674
NANOSAT C BR1 26 Nov 21:40:41 21:42:21 12° 90° (E) 21:44:01 145.865
AISAT 26 Nov 21:42:39 21:47:09 79° 257° (WSW) 21:51:38 437.250
UKube-1 26 Nov 21:43:25 21:47:00 25° 264° (W) 21:50:36 .
FUNcube-1 26 Nov 21:47:13 21:51:15 45° 261° (W) 21:55:15 145.935
QB50P1 26 Nov 21:49:55 21:52:29 16° 92° (E) 21:55:03 145.935-145.965
CUBEBUG 1 26 Nov 21:52:42 21:56:57 46° 72° (ENE) 22:01:13 437.445
Oscar 11 26 Nov 21:55:00 21:57:52 17° 268° (W) 22:00:46 145.826/435.025
BUGSAT 1 26 Nov 21:56:31 21:58:47 14° 92° (E) 22:01:01 437.445
TIGRISAT 26 Nov 21:56:58 22:00:49 28° 96° (E) 22:04:44 435.000
DELFI C3 26 Nov 22:04:02 22:06:24 15° 268° (W) 22:08:48 145.870
50 SAT 26 Nov 22:08:34 22:12:28 49° 260° (W) 22:16:23 437.505
UNISAT 6 26 Nov 22:10:50 22:15:03 41° 99° (E) 22:19:21 437.425
POPSAT HIP 1 26 Nov 22:13:57 22:17:37 29° 96° (E) 22:21:17 437.405
UWE-3 26 Nov 22:16:44 22:19:45 19° 267° (W) 22:22:44 435.000/436.395/437.385
CUBEBUG 2 26 Nov 22:18:45 22:21:22 16° 268° (W) 22:23:58 437.445
HUMSAT D 26 Nov 22:25:59 22:29:30 27° 264° (W) 22:33:02 437.325/437.525
CUSAT 1 26 Nov 22:34:12 22:38:15 27° 76° (ENE) 22:43:21 437.405
ANTELSAT 26 Nov 22:39:32 22:44:01 84° 103° (ESE) 22:48:35 437.575/2403.000
ISS 26 Nov 22:43:27 22:46:38 47° 140° (SE) 22:49:48 145.825
POLYITAN 1 26 Nov 22:47:39 22:51:53 71° 102° (ESE) 22:56:06 437.675
QB50P2 26 Nov 22:49:19 22:53:34 75° 102° (ESE) 22:57:47 145.880/145.840
ESTCUBE 1 26 Nov 22:54:23 22:58:36 37° 262° (W) 23:02:51 437.505/2401.250
VELOX 1 26 Nov 22:54:43 22:57:16 15° 268° (W) 22:59:49 145.980
DUCHIFAT 1 26 Nov 22:54:48 22:59:02 84° 103° (ESE) 23:03:14 145.980
AUBIESAT-1 26 Nov 22:56:48 22:59:38 18° 57° (ENE) 23:02:37 437.475
TISAT 1 26 Nov 23:00:38 23:04:52 66° 74° (ENE) 23:09:06 437.305
M-CUBED/EXP-1 PRIME 26 Nov 23:02:13 23:05:24 21° 59° (ENE) 23:08:48 437.505
DANDE 26 Nov 23:03:31 23:07:50 41° 78° (ENE) 23:13:32 436.750
RS-15 26 Nov 23:03:55 23:14:14 40° 38° (NE) 23:24:53 29.354- 29.394
SPROUT 26 Nov 23:13:08 23:17:27 78° 76° (ENE) 23:21:47 437.525
NANOSAT C BR1 26 Nov 23:14:27 23:18:36 58° 286° (WNW) 23:22:44 145.865
BEESAT 26 Nov 23:17:42 23:20:50 18° 63° (ENE) 23:23:58 436.000
QB50P1 26 Nov 23:24:35 23:28:37 44° 288° (WNW) 23:32:37 145.935-145.965
BUGSAT 1 26 Nov 23:30:38 23:34:32 44° 288° (WNW) 23:38:23 437.445
CUBEBUG 1 26 Nov 23:30:43 23:33:34 17° 268° (W) 23:36:25 437.445
TIGRISAT 26 Nov 23:33:45 23:37:30 28° 292° (WNW) 23:41:19 435.000
UNISAT 6 26 Nov 23:48:20 23:51:35 20° 294° (WNW) 23:54:53 437.425
POPSAT HIP 1 26 Nov 23:50:00 23:53:25 25° 292° (WNW) 23:56:51 437.405
MaSat-1 27 Nov 00:08:08 00:10:27 82° 245° (WSW) 00:12:51 437.345
ITUPSAT 1 27 Nov 00:12:02 00:16:44 56° 72° (ENE) 00:21:28 437.325
CUSAT 1 27 Nov 00:16:53 00:21:20 37° 264° (W) 00:27:06 437.405
ANTELSAT 27 Nov 00:19:10 00:20:11 11° 299° (WNW) 00:21:11 437.575/2403.000
ISS 27 Nov 00:20:30 00:23:24 28° 338° (NNW) 00:26:18 145.825
YUBILEINY 27 Nov 00:20:50 00:25:00 14° 74° (ENE) 00:29:10 435.215
SWISSCUBE 27 Nov 00:22:30 00:27:18 79° 75° (ENE) 00:32:08 437.505
STARS 27 Nov 00:25:33 00:26:51 11° 60° (ENE) 00:28:09 437.465
POLYITAN 1 27 Nov 00:25:58 00:27:15 11° 299° (WNW) 00:28:33 437.675
QB50P2 27 Nov 00:27:50 00:28:53 11° 299° (WNW) 00:29:55 145.880/145.840
AUBIESAT-1 27 Nov 00:30:13 00:34:11 49° 256° (WSW) 00:38:31 437.475
M-CUBED/EXP-1 PRIME 27 Nov 00:36:22 00:40:10 38° 258° (WSW) 00:44:20 437.505
TISAT 1 27 Nov 00:40:01 00:41:08 11° 270° (W) 00:42:15 437.305
DANDE 27 Nov 00:47:31 00:51:16 23° 266° (W) 00:55:54 436.750
BEESAT 27 Nov 00:53:32 00:58:14 55° 259° (W) 01:02:58 436.000
KKS-1 27 Nov 01:04:52 01:09:02 41° 71° (ENE) 01:13:13 437.445
Oscar 19 27 Nov 01:05:23 01:10:22 46° 99° (E) 01:15:19 437.125/150
RS-15 27 Nov 01:16:21 01:27:31 73° 243° (WSW) 01:39:11 29.354- 29.394
ITUPSAT 1 27 Nov 01:52:03 01:54:59 16° 269° (W) 01:57:55 437.325
STARS 27 Nov 01:58:18 02:02:42 78° 257° (WSW) 02:07:07 437.465
ISS 27 Nov 01:58:47 02:00:51 15° 358° (N) 02:02:54 145.825
ITAMSAT 1 27 Nov 02:00:36 02:05:44 58° 101° (E) 02:10:48 435.822/435.867
SWISSCUBE 27 Nov 02:04:23 02:05:44 11° 271° (W) 02:07:04 437.505
YUBILEINY 27 Nov 02:11:27 02:20:13 77° 94° (E) 02:29:00 435.215
HORYU 2 27 Nov 02:14:07 02:17:14 18° 93° (E) 02:20:21 437.375
Gurwin Techsat 1B 27 Nov 02:38:36 02:43:57 77° 103° (ESE) 02:49:15 435.225
KKS-1 27 Nov 02:42:42 02:45:51 19° 267° (W) 02:49:01 437.445
Oscar 19 27 Nov 02:45:24 02:49:24 23° 296° (WNW) 02:53:23 437.125/150
SO-50 27 Nov 03:04:27 03:08:53 60° 119° (ESE) 03:13:28 436.795
BEESAT 3 27 Nov 03:06:11 03:08:59 17° 42° (NE) 03:11:45 437.485
AO-7 27 Nov 03:20:27 03:27:53 34° 97° (E) 03:35:16 29.400- 29.500
BEESAT 2 27 Nov 03:22:14 03:25:28 21° 44° (NE) 03:28:40 435.950
RS-15 27 Nov 03:31:52 03:37:52 16° 263° (W) 03:44:02 29.354- 29.394
ISS 27 Nov 03:35:41 03:38:22 23° 18° (NNE) 03:41:03 145.825
PCSat 27 Nov 03:40:15 03:45:25 42° 53° (NE) 03:50:32 145.827
ITAMSAT 1 27 Nov 03:41:12 03:44:45 19° 298° (WNW) 03:48:17 435.822/435.867
JAS-2 27 Nov 03:45:20 03:49:26 16° 85° (E) 03:53:16 435.910
HORYU 2 27 Nov 03:49:51 03:54:06 43° 289° (WNW) 03:58:22 437.375
MOZHAYETS 4 27 Nov 03:53:04 03:57:37 68° 75° (ENE) 04:02:14
AIST 2 27 Nov 04:01:19 04:04:56 25° 46° (NE) 04:08:30 435.215
YUBILEINY 27 Nov 04:11:12 04:17:58 24° 295° (WNW) 04:24:45 435.215
O/OREOS (USA 219) 27 Nov 04:16:22 04:18:20 13° 98° (E) 04:20:19 437.305
Gurwin Techsat 1B 27 Nov 04:20:17 04:23:15 15° 300° (WNW) 04:26:13 435.225
PRISM 27 Nov 04:41:22 04:45:20 42° 71° (ENE) 04:49:20 437.425
BEESAT 3 27 Nov 04:43:27 04:47:37 64° 240° (WSW) 04:51:43 437.485
SO-50 27 Nov 04:46:24 04:49:50 20° 319° (NW) 04:53:21 436.795
Cubesat XI-IV 27 Nov 04:50:41 04:52:39 12° 88° (E) 04:54:36 437.490
STRAND 1 27 Nov 04:58:31 05:02:51 28° 66° (ENE) 05:07:11 437.568
BEESAT 2 27 Nov 04:59:57 05:04:00 47° 242° (WSW) 05:07:59 435.950
AIST 1 27 Nov 05:04:37 05:06:02 11° 67° (ENE) 05:07:27
ISS 27 Nov 05:12:01 05:15:19 77° 217° (SW) 05:18:36 145.825
AO-7 27 Nov 05:12:51 05:20:57 56° 295° (WNW) 05:29:01 29.400- 29.500
PCSat 27 Nov 05:24:02 05:28:38 29° 251° (WSW) 05:33:12 145.827
JAS-2 27 Nov 05:28:23 05:35:31 82° 286° (WNW) 05:41:44 435.910
CUTE-I 27 Nov 05:29:39 05:34:13 28° 95° (E) 05:38:45 437.470
MOZHAYETS 4 27 Nov 05:33:34 05:35:19 12° 271° (W) 05:37:05
CUBESAT XI-V 27 Nov 05:37:37 05:42:17 63° 74° (ENE) 05:46:58 437.345
AIST 2 27 Nov 05:39:40 05:43:40 38° 244° (WSW) 05:47:35 435.215
O/OREOS (USA 219) 27 Nov 05:52:44 05:57:11 61° 295° (WNW) 06:01:37 437.305
GONETS M04 27 Nov 06:10:14 06:15:11 17° 76° (ENE) 06:20:08
PRISM 27 Nov 06:18:22 06:21:05 17° 267° (W) 06:23:49 437.425
Cubesat XI-IV 27 Nov 06:28:02 06:33:24 84° 285° (WNW) 06:38:42 437.490
STRAND 1 27 Nov 06:37:09 06:41:53 37° 262° (W) 06:46:38 437.568
AIST 1 27 Nov 06:39:51 06:44:13 66° 265° (W) 06:48:30
